SCP
0 0 0 0 0 0 0 0 0 0 0 0 0 0 0 0 0 0 0 0 0 0 0 0 0 0 0 0 0 0 0 0 0 0 0 0 0 0 0 0 0 0 0 0
0 0 0 0 0 0 0 0 0 0 0 0 0 0 0 0 0 0 0 0 0 0 0 0 0 0 0 0 0 0 0 0 0 0 0 0 0 0 0 0 0 0 0 0
0 0 0 0 0 0 0 0 0 0 0 0 0 0 0 0 0 0 0 0 0 0 0 0 0 0 0 0 0 0 0 0 0 0 0 0 0 0 0 0 0 0 0 0
0 0 0 0 0 0 0 0 0 0 0 0 0 -0 0 0 0 0 0 0 0 0 0 0 0 0 0 0 0 0 0 0 0 0 0 0 0 0 0 0 0 0 0 0
0 0 0 0 0 0 0 0 0 0 0 0 0 0 0 0 0 0 0 0 0 0 0 0 0 0 0 0 0 0 0 0 0 0 0 0 0 0 0 0 0 0 0 0
0 0 0 0 0 0 0 0 0 0 0 0 0 0 0 0 0 0 0 0 0 0 0 0 0 0 0 0 0 0 0 0 0 0 0 0 0 0 0 0 0 0 0 0
0 0 0 0 0 0 0 0 0 0 0 0 0 0 0 0 0 0 0 0 0 0 0 0 0 0 0 0 0 0 0 0 0 0 0 0 0 0 0 0 0 0 0 0
0 0 0 0 0 0 0 0 0 0 0 0 0 0 0 0 0 0 0 0 0 0 0 0 0 0 0 0 0 0 0 0 0 0 0 0 0 0 0 0 0 0 0 0
0 0 0 0 0 0 0 0 0 0 0 0 0 0 0 0 0 0 0 0 0 0 0 0 0 0 0 0 0 0 0 0 0 0 0 0 0 0 0 0 0 0 0 0
0 0 0 0 0 0 0 0 0 0 0 0 0 0 0 0 0 0 0 0 0 0 0 0 0 0 0 0 0 0 0 0 0 0 0 0 0 0 0 0 0 0 0 0
0 0 0 0 0 0 0 0 0 0 0 0 0 0 0 0 0 0 0 0 0 0 0 0 0 0 0 0 0 0 0 0 0 0 0 0 0 0 0 0 0 0 0 0
0 0 0 0 0 0 0 0 0 0 0 0 0 0 0 0 0 0 0 0 0 0 0 0 0 0 0 0 0 0 0 0 0 0 0 0 0 0 0 0 0 0 0 0
0 0 0 0 0 0 0 0 0 0 0 0 0 0 0 0 0 0 0 0 0 0 0 0 0 0 0 0 0 0 0 0 0 0 0 0 0 0 0 0 0 0 0 0
0 0 0 0 0 0 0 0 0 0 0 0 0 0 0 0 0 0 0 0 0 0 0 0 0 0 0 0 0 0 0 0 0 0 0 0 0 0 0 0 0 0 0 0
0 0 0 0 0 0 0 0 0 0 0 0 0 0 0 0 0 0 0 0 0 0 0 0 0 0 0 0 0 0 0 0 0 0 0 0 0 0 0 0 0 0 0 0
0 0 0 0 0 0 0 0 0 0 0 0 0 0 0 0 0 0 0 0 0 0 0 0 0 0 0 0 0 0 0 0 0 0 0 0 -0 -0 -0 0 0 0 0 0
0 0 0 0 0 0 0 0 0 0 0 0 0 0 0 0 0 0 0 0 0 0 0 0 0 0 0 -0 -0 -0 -0 -0 -0 -0 -0 -0 -0 0 0 0 0 0 0 0
0 0 0 0 0 0 0 0 0 0 0 0 0 0 0 0 0 0 0 0 0 0 0 0 0 0 0 -0 -0 -0 -0 -0 -0 0 0 0 0 0 0 0 0 0 0 0
0 0 0 0 0 0 0 0 0 0 0 0 0 0 0 0 0 0 0 0 0 0 0 0 0 0 0 0 0 0 0 0 0 0 0 0 0 0 0 0 0 0 0 0
0 0 0 0 0 0 0 0 0 0 0 0 0 0 0 0 0 0 0 0 0 0 0 0 0 0 0 0 0 0 0 0 0 0 0 0 0 0 0 0 0 0 0 0
0 0 0 0 0 0 0 0 0 0 0 0 0 0 0 0 0 0 0 0 0 0 0 0 0 0 0 0 0 0 0 0 0 0 0 0 0 0 0 0 0 0 0 0
0 0 0 0 0 0 0 0 0 0 0 0 0 0 0 0 0 0 0 0 0 0 0 0 0 0 0 0 0 0 0 0 0 0 0 0 0 0 0 0 0 0 0 0
0 0 0 0 0 0 0 0 0 0 0 0 0 0 0 0 0 0 0 0 0 0 0 0 0 0 0 0 0 0 0 0 0 0 0 0 0 0 0 0 0 0 0 0
0 0 0 0 0 0 0 0 0 0 0 0 0 0 0 0 0 0 0 0 0 0 0 0 0 0 0 0 0 0 0 0 0 0 0 0 0 0 0 0 0 0 0 0
0 0 0 0 0 0 0 0 0 0 0 0 0 0 0 0 0 0 0 0 0 0 0 0 0 0 0 0 0 0 0 0 0 0 0 0 0 0 0 0 0 0 0 0
0 0 0 0 0 0 0 0 0 0 0 0 0 0 0 0 0 0 0 0 0 0 0 0 0 0 0 0 0 0 0 0 0 0 0 0 0 0 0 0 0 0 0 0
Wind_Speed
5 7 11 15 17 17 14 15 20 21 19 13 18 20 18 21 22 22 21 17 12 11 11 13 14 15 14 12 10 9 11 12 12 11 12 12 13 12 12 12 15 17 17 18
6 13 17 10 5 8 12 16 20 19 11 7 14 19 18 18 17 18 17 13 12 11 12 15 17 18 18 16 14 10 8 9 12 10 10 10 10 10 11 10 12 15 16 17
13 5 4 7 10 11 13 14 15 16 13 8 10 12 6 9 14 16 11 6 6 10 13 16 17 18 19 19 18 13 9 6 9 10 7 6 7 6 8 10 10 13 15 16
11 4 3 6 9 11 13 10 12 12 10 9 6 15 8 10 16 11 3 6 12 14 15 16 18 19 21 20 18 17 13 7 4 7 8 10 8 9 9 8 9 12 15 16
7 4 6 9 10 9 8 3 3 5 8 11 6 11 8 7 11 4 8 12 15 16 17 19 20 20 20 20 18 18 16 12 7 4 7 9 10 8 6 7 10 12 12 15
7 2 6 6 2 4 2 1 2 2 5 13 7 10 9 7 6 5 12 14 16 16 17 18 18 19 19 20 19 18 18 16 12 6 5 8 10 10 9 8 8 9 8 11
7 6 5 4 3 2 4 4 8 8 6 11 2 8 9 7 5 10 12 13 15 16 17 18 19 20 20 21 21 20 20 19 16 12 8 8 9 10 11 10 9 9 9 10
12 15 7 8 9 5 6 6 8 11 15 19 4 11 5 3 11 13 12 12 14 16 15 16 17 17 17 19 19 19 20 19 18 16 12 9 9 8 8 10 9 9 9 10
11 12 0 4 5 5 5 9 10 11 13 18 18 15 6 5 9 10 11 12 13 13 13 13 14 15 16 17 18 18 18 18 18 17 16 14 11 9 10 10 10 9 9 8
8 15 8 1 2 6 8 5 4 8 11 20 25 29 22 9 4 6 9 10 10 10 11 11 12 13 13 14 15 16 16 16 16 16 14 12 14 13 11 9 10 11 11 10
4 9 12 6 11 18 11 9 12 12 12 15 21 20 6 6 7 6 7 7 9 10 10 10 10 10 11 12 13 14 15 16 15 15 14 14 14 14 13 10 11 11 10 10
6 6 12 16 11 8 14 16 17 16 17 16 16 11 6 8 6 6 5 4 5 7 8 9 9 9 10 11 11 12 13 13 14 14 14 13 14 14 14 14 13 12 11 11
2 4 8 9 5 1 5 4 6 7 7 9 11 6 7 8 6 5 4 3 3 5 7 8 9 10 10 11 11 11 11 12 12 12 12 13 14 14 15 15 14 13 12 11
3 7 13 19 16 9 10 11 10 11 10 12 14 16 11 12 5 2 2 2 1 2 5 7 8 9 10 10 10 11 11 11 11 11 11 12 13 13 13 14 14 14 13 11
3 10 15 19 20 19 20 22 22 23 22 21 22 26 24 12 4 1 2 2 2 3 5 7 7 8 9 10 10 11 11 10 11 11 11 11 11 12 12 12 13 13 12 12
4 10 14 19 22 22 23 24 26 26 25 27 27 28 5 3 1 1 4 5 6 5 8 9 9 9 9 9 9 10 11 11 10 11 11 11 11 11 11 12 13 13 13 12
6 8 12 19 18 17 21 20 24 24 25 25 24 8 6 3 3 5 7 8 8 7 9 11 12 11 10 10 10 11 11 11 10 10 10 10 10 11 12 13 13 13 13 13
13 13 10 11 8 22 13 5 13 18 15 4 4 6 2 5 8 9 9 11 10 9 11 12 12 13 13 12 12 12 11 11 11 11 10 10 11 12 13 14 14 14 13 13
17 15 11 9 16 19 12 6 6 9 8 5 7 5 2 6 9 10 10 11 12 11 11 12 13 14 14 14 13 11 12 12 13 13 13 12 11 12 14 15 16 15 15 15
6 11 10 10 12 11 4 3 2 1 4 4 5 6 7 7 11 12 11 10 12 13 12 13 13 14 14 15 13 13 15 15 15 15 15 14 13 12 15 16 17 16 15 16
3 5 10 14 13 10 3 2 2 4 2 5 10 12 11 12 13 14 15 13 13 14 14 13 14 14 15 14 12 15 17 17 16 15 15 15 15 15 17 17 17 17 17 18
6 6 6 5 8 9 3 5 5 5 5 8 11 13 14 15 15 15 15 15 14 14 14 14 14 15 16 15 14 17 19 18 16 16 17 17 17 17 16 18 18 18 17 18
9 8 5 9 8 6 5 9 11 12 13 16 16 15 14 15 16 16 15 14 12 13 13 13 13 16 17 14 14 18 19 18 18 18 18 19 20 18 17 18 19 17 16 15
11 11 11 12 17 18 18 20 20 20 19 19 17 15 14 15 15 13 11 10 11 11 11 11 13 15 17 16 15 16 18 18 18 20 21 20 19 19 18 15 15 15 15 15
13 7 12 18 21 20 21 21 20 19 18 17 13 8 6 7 9 8 8 9 9 10 10 11 12 15 18 18 17 17 17 18 20 21 20 20 18 18 17 16 15 17 17 18
17 17 18 19 20 18 18 17 17 17 16 9 5 3 1 3 6 7 8 8 9 11 12 13 14 16 17 18 18 17 16 17 19 19 18 16 15 15 15 16 17 24 27 32
Wind_Direction
167 197 222 232 228 252 282 282 280 281 286 291 284 287 288 283 283 280 276 279 302 321 335 353 357 355 349 341 318 277 244 223 209 203 206 211 215 214 215 215 210 203 196 191
166 226 238 255 249 248 256 267 276 284 296 285 288 289 284 274 268 267 276 304 325 337 6 16 12 8 5 1 352 329 281 242 220 213 207 210 214 219 220 219 218 213 205 196
228 246 235 221 233 242 249 254 271 282 308 277 294 289 257 265 261 265 279 309 1 22 24 23 21 17 13 9 360 350 330 276 236 225 222 216 216 223 215 216 217 218 217 208
248 270 181 207 236 238 262 257 260 277 293 298 331 301 274 257 271 275 327 57 52 42 37 31 26 23 20 12 7 7 3 346 269 223 219 218 221 226 223 216 214 212 217 218
234 209 192 216 233 210 243 331 272 268 277 285 244 266 298 218 263 292 63 58 49 43 38 32 28 26 23 18 17 16 19 18 359 260 231 230 237 246 251 234 223 214 210 217
261 225 221 231 249 215 215 288 261 230 265 278 266 237 294 203 235 73 63 48 43 40 38 34 30 29 27 26 26 24 25 24 13 346 283 255 252 253 254 246 236 221 211 214
264 224 221 200 193 154 179 265 290 279 262 275 109 243 264 226 46 60 60 48 41 38 35 30 27 27 26 26 26 26 28 25 18 8 340 302 278 267 260 253 241 227 216 213
281 275 217 200 219 221 189 218 252 277 279 285 254 250 262 71 75 76 69 58 46 40 34 31 28 27 26 25 24 25 26 24 20 17 3 338 308 285 273 265 255 240 230 223
275 278 55 193 204 183 192 221 248 255 267 276 268 260 249 106 78 66 59 52 45 39 33 29 26 26 24 23 22 22 22 20 17 16 14 4 347 319 296 284 269 259 247 236
283 286 278 312 162 232 245 250 192 228 249 255 262 266 266 207 131 77 60 51 42 35 31 27 24 23 23 21 18 19 21 19 15 12 13 10 6 352 330 309 287 273 263 247
228 266 277 248 237 258 228 217 230 245 245 254 260 260 312 123 123 97 67 48 33 25 19 17 17 17 19 18 17 15 15 14 10 8 7 7 7 4 357 341 318 298 281 262
231 252 265 267 271 274 259 246 241 246 248 248 258 260 96 125 134 133 116 75 42 24 13 8 8 9 12 13 12 11 9 9 4 1 1 4 4 3 1 355 342 324 301 279
232 228 269 273 257 251 250 255 253 258 262 248 252 250 153 158 157 155 148 126 79 32 10 0 359 360 2 2 2 3 2 4 358 356 357 359 1 0 356 351 346 337 319 296
288 246 256 270 281 297 288 286 279 272 271 271 266 276 253 240 240 175 165 175 152 23 0 353 348 348 348 348 350 351 350 354 351 349 352 355 354 352 348 344 342 340 331 313
253 263 266 271 276 276 279 280 277 272 270 273 278 280 284 295 293 285 297 271 254 316 344 341 334 329 329 333 334 336 334 341 341 339 340 343 342 341 339 339 337 334 331 322
254 265 275 274 275 276 274 270 269 271 274 272 273 274 320 62 110 293 307 289 272 300 333 334 325 316 312 314 315 316 317 324 327 324 323 326 330 332 333 332 330 327 327 324
249 256 270 272 278 280 263 255 263 267 266 272 278 302 76 25 311 299 304 296 279 294 321 324 321 315 307 305 307 303 303 306 307 307 310 314 320 324 326 324 322 320 320 317
248 254 260 270 259 256 271 276 260 268 275 287 116 118 84 328 302 286 283 288 275 283 308 317 316 312 309 305 301 300 297 295 295 298 301 306 315 317 319 317 313 312 309 305
240 249 254 256 260 268 273 239 231 250 260 189 168 172 303 321 301 285 279 276 265 280 299 306 309 308 306 304 305 302 297 295 294 295 298 302 307 309 311 309 307 306 303 298
227 230 241 245 257 265 282 90 83 191 261 183 207 242 292 308 301 306 313 285 268 277 291 302 307 307 303 305 312 306 300 298 297 298 298 299 298 296 298 298 299 298 295 290
214 217 229 246 258 269 262 154 168 233 258 188 224 254 275 279 283 295 298 288 276 281 293 303 306 304 303 310 314 304 300 299 302 301 298 294 293 293 292 291 289 289 289 287
237 237 218 221 243 261 157 178 221 254 268 270 274 279 279 280 286 290 291 289 288 293 301 309 309 305 307 314 315 305 300 306 309 305 298 295 293 291 288 285 284 282 281 280
228 231 209 203 243 286 213 231 262 283 284 290 291 288 284 283 287 291 294 296 300 305 310 316 314 306 305 311 312 303 305 312 309 303 297 294 292 287 284 281 279 279 275 270
244 237 243 251 259 264 263 266 276 283 283 284 283 283 282 282 288 293 298 304 309 313 315 317 314 306 304 310 310 307 309 310 305 299 297 296 294 290 286 281 277 273 270 269
246 236 245 255 265 274 270 270 273 277 279 278 277 273 273 281 287 298 304 308 310 312 316 316 309 303 303 308 308 308 307 306 300 298 296 295 291 288 286 279 272 272 264 263
250 247 248 257 266 268 272 275 276 275 276 270 243 236 227 302 302 310 306 311 313 312 313 308 304 301 302 304 303 303 303 301 298 297 296 293 290 287 283 281 279 273 271 272